Piney Island, NC

12:04 PM EDT on May 24, 2017 (GMT -0400)
Piney Island

Weather History for KNBT - March, 2013

Change the Weather History Date:

Monday, March 11, 2013

  Actual Average (KMRH) Record (KMRH)
Temperature  
Mean Temperature 58 °F -  
Max Temperature 69 °F 64 °F 83 °F (1974)
Min Temperature 48 °F 41 °F 27 °F (1969)
Degree Days  
Heating Degree Days 6    
Growing Degree Days 8 (Base 50)    
Moisture  
Dew Point 50 °F    
Average Humidity 74    
Maximum Humidity 93    
Minimum Humidity 51    
Precipitation  
Precipitation 0.00 in - - ()
Sea Level Pressure  
Sea Level Pressure 30.18 in    
Wind  
Wind Speed 7 mph (ESE)    
Max Wind Speed 15 mph    
Max Gust Speed 21 mph    
Visibility 10 miles    
Events Rain    
Averages and records for this station are not official NWS values.
T = Trace of Precipitation, MM = Missing Value Source: NWS Daily Summary

Daily Weather History Graph

Daily Weather History Graph

Search for Another Location

Airport or City:

Trip Planner

Search our weather history database for the weather conditions in past years. The results will help you decide how hot, cold, wet, or windy it might be!

Date:

Astronomy

Mar. 11, 2013 Rise Set
Actual Time 7:21 AM EDT 7:10 PM EDT
Civil Twilight 6:56 AM EDT 7:35 PM EDT
Nautical Twilight 6:27 AM EDT 8:04 PM EDT
Astronomical Twilight 5:57 AM EDT 8:34 PM EDT
Moon 6:55 AM EDT (3/11) 7:17 PM EDT (3/11)
Length of Visible Light 12h 39m
Length of Day
11h 48m
Waning Crescent, 0% of the Moon is Illuminated
Mar 11
Waning Crescent
Mar 11
New
Mar 19
First Quarter
Mar 27
Full
Apr 3
Last Quarter

Hourly Weather History & Observations

Time (EDT) Temp. Dew Point Humidity Pressure Visibility Wind Dir Wind Speed Gust Speed Precip Events Conditions
12:56 AM 50.0 °F 46.9 °F 89% 30.27 in - ENE 5.8 mph - N/A   Clear
1:56 AM 50.0 °F 46.9 °F 89% 30.27 in - ENE 6.9 mph - N/A   Clear
2:56 AM 50.0 °F 46.9 °F 89% 30.26 in - NE 3.5 mph - N/A   Scattered Clouds
3:56 AM 50.0 °F 46.9 °F 89% 30.23 in - ENE 6.9 mph - N/A   Partly Cloudy
4:56 AM 48.9 °F 46.9 °F 93% 30.22 in - North 4.6 mph - N/A   Clear
5:56 AM 48.9 °F 46.9 °F 93% 30.22 in - NE 4.6 mph - N/A   Scattered Clouds
6:56 AM 50.0 °F 48.0 °F 93% 30.21 in - ENE 5.8 mph - N/A   Partly Cloudy
7:56 AM 51.1 °F 48.9 °F 92% 30.21 in - East 4.6 mph - N/A   Mostly Cloudy
8:56 AM 53.1 °F 50.0 °F 89% 30.23 in - Calm Calm - N/A   Mostly Cloudy
9:56 AM 57.0 °F 50.0 °F 77% 30.22 in - East 9.2 mph - N/A   Clear
10:56 AM 62.1 °F 52.0 °F 70% 30.22 in 10.0 mi East 6.9 mph - N/A   Clear
11:56 AM 64.9 °F 52.0 °F 63% 30.20 in 10.0 mi East 10.4 mph - N/A   Scattered Clouds
12:56 PM 68.0 °F 51.1 °F 55% 30.18 in 10.0 mi SE 13.8 mph 19.6 mph N/A   Mostly Cloudy
1:56 PM 69.1 °F 50.0 °F 51% 30.16 in 10.0 mi SE 15.0 mph 19.6 mph N/A   Mostly Cloudy
2:56 PM 66.9 °F 51.1 °F 57% 30.15 in 10.0 mi SSE 13.8 mph 19.6 mph N/A   Mostly Cloudy
3:56 PM 66.9 °F 51.1 °F 57% 30.13 in 10.0 mi SSE 12.7 mph 20.7 mph N/A   Mostly Cloudy
4:56 PM 66.9 °F 51.1 °F 57% 30.12 in 10.0 mi SSE 10.4 mph - N/A   Overcast
5:56 PM 66.0 °F 52.0 °F 60% 30.10 in 10.0 mi SSE 9.2 mph - N/A   Mostly Cloudy
6:56 PM 64.0 °F 52.0 °F 65% 30.10 in 10.0 mi SSE 6.9 mph - N/A   Overcast
7:56 PM 62.1 °F 53.1 °F 72% 30.10 in 10.0 mi SSE 4.6 mph - 0.00 in Rain Light Rain
8:56 PM 63.0 °F 53.1 °F 70% 30.09 in 10.0 mi SE 12.7 mph - 0.00 in   Mostly Cloudy
9:56 PM 64.0 °F 53.1 °F 67% 30.09 in 10.0 mi South 8.1 mph - N/A   Mostly Cloudy
10:56 PM 63.0 °F 55.0 °F 75% 30.06 in 9.0 mi SSE 10.4 mph - 0.00 in Rain Light Rain